AAL6532 KDTW-LICJ

Flight info

Callsign AAL6532
Flight time N/A
Altitude 33000
Route ZETTR4 SIKBO DCT DEDKI Q913 CABCI Q29 YHZ DCT 44N059W/M084F350 44N056W 44N051W 44N047W 44N039W 44N032W 44N024W 44N018W DCT KOPAS/N0483F370 DCT STG/N0461F240 N725 SUSOS/N0486F360 N725 MECKI/N0482F380 N725 OSPOK/N0426F180 N725 ORKUM/N0480F260 M603 ELSAG/N0426F180 M603 ALG/N0433F190 M732 CAR M871 KAPIL
Aircraft B77W/H-SDE1E2E3FGHIJ2J3J4J5M1RWXY/LB1D1

Departure

Time N/A
Airport Detroit Metropolitan Wayne County Airport (KDTW)

Arrival

Time 2026-05-07 06:12
Airport Falcone–Borsellino Airport (LICJ)
Time Latitude Longitude Altitude Speed Heading
2026-05-07 02:22 44.05875 -26.40758 32917 ft 507 kts 94°
2026-05-07 02:23 44.05736 -26.30970 32916 ft 506 kts 94°
2026-05-07 02:23 44.05587 -26.21206 32900 ft 504 kts 94°
2026-05-07 02:24 44.05431 -26.11466 32912 ft 503 kts 94°
2026-05-07 02:24 44.05268 -26.01753 32912 ft 502 kts 94°
2026-05-07 02:25 44.05096 -25.92059 32902 ft 501 kts 95°
2026-05-07 02:25 44.04916 -25.82374 32905 ft 501 kts 95°
2026-05-07 02:26 44.04727 -25.72679 32903 ft 501 kts 95°
2026-05-07 02:26 44.04531 -25.62989 32899 ft 502 kts 95°
2026-05-07 02:27 44.04328 -25.53357 32891 ft 502 kts 96°
2026-05-07 02:27 44.04149 -25.45222 32878 ft 502 kts 96°
2026-05-07 02:28 44.03893 -25.33958 32904 ft 502 kts 96°
2026-05-07 02:28 44.03702 -25.25835 32886 ft 503 kts 96°
2026-05-07 02:29 44.03465 -25.16121 32867 ft 503 kts 96°
2026-05-07 02:29 44.03222 -25.06482 32881 ft 502 kts 96°
2026-05-07 02:30 44.03157 -25.03953 32892 ft 502 kts 96°
2026-05-07 02:30 44.02917 -24.94786 32886 ft 502 kts 96°
2026-05-07 02:31 44.02655 -24.85103 32892 ft 501 kts 96°
2026-05-07 02:31 44.02384 -24.75424 32865 ft 501 kts 96°
2026-05-07 02:32 44.02107 -24.65769 32872 ft 499 kts 97°
2026-05-07 02:32 44.01822 -24.56130 32884 ft 498 kts 97°
2026-05-07 02:33 44.01530 -24.46533 32884 ft 497 kts 97°
2026-05-07 02:33 44.01229 -24.36931 32893 ft 497 kts 97°
2026-05-07 02:34 44.00921 -24.27339 32888 ft 496 kts 97°
2026-05-07 02:34 44.00606 -24.17769 32892 ft 496 kts 97°
2026-05-07 02:35 44.00284 -24.08208 32893 ft 496 kts 97°
2026-05-07 02:35 43.99997 -23.98638 32887 ft 497 kts 94°
2026-05-07 02:36 44.00213 -23.89018 32879 ft 498 kts 91°
2026-05-07 02:36 44.00493 -23.79407 32904 ft 498 kts 92°
2026-05-07 02:37 44.00747 -23.69811 32903 ft 497 kts 92°
2026-05-07 02:37 44.00974 -23.60211 32908 ft 497 kts 92°
2026-05-07 02:38 44.01187 -23.50604 32897 ft 497 kts 92°
2026-05-07 02:38 44.01391 -23.40996 32906 ft 497 kts 92°
2026-05-07 02:39 44.01588 -23.31402 32913 ft 497 kts 92°
2026-05-07 02:39 44.01777 -23.21854 32916 ft 497 kts 92°
2026-05-07 02:40 44.01960 -23.12184 32920 ft 497 kts 92°
2026-05-07 02:40 44.02133 -23.02645 32920 ft 497 kts 92°
2026-05-07 02:41 44.02299 -22.93033 32919 ft 497 kts 92°
2026-05-07 02:41 44.02457 -22.83433 32912 ft 497 kts 92°
2026-05-07 02:42 44.02606 -22.73827 32917 ft 497 kts 92°
2026-05-07 02:42 44.02748 -22.64224 32928 ft 497 kts 92°
2026-05-07 02:43 44.02881 -22.54613 32929 ft 498 kts 92°
2026-05-07 02:43 44.03007 -22.44981 32925 ft 498 kts 92°
2026-05-07 02:44 44.03125 -22.35344 32930 ft 499 kts 92°
2026-05-07 02:44 44.03235 -22.25700 32937 ft 499 kts 92°
2026-05-07 02:45 44.03337 -22.16055 32927 ft 500 kts 92°
2026-05-07 02:45 44.03431 -22.06376 32935 ft 500 kts 92°
2026-05-07 02:46 44.03516 -21.96705 32941 ft 500 kts 93°
2026-05-07 02:46 44.03594 -21.87032 32938 ft 501 kts 93°
2026-05-07 02:47 44.03663 -21.77341 32933 ft 502 kts 93°
2026-05-07 02:47 44.03725 -21.67624 32938 ft 503 kts 93°
2026-05-07 02:48 44.03778 -21.57916 32942 ft 503 kts 93°
2026-05-07 02:48 44.03823 -21.48175 32934 ft 504 kts 93°
2026-05-07 02:49 44.03860 -21.38421 32942 ft 505 kts 93°
2026-05-07 02:49 44.03888 -21.28664 32942 ft 505 kts 93°
2026-05-07 02:50 44.03909 -21.18888 32950 ft 505 kts 93°
2026-05-07 02:50 44.03920 -21.09184 32939 ft 506 kts 93°
2026-05-07 02:51 44.03924 -20.99414 32951 ft 506 kts 93°
2026-05-07 02:51 44.03920 -20.89637 32948 ft 506 kts 93°
2026-05-07 02:52 44.03907 -20.79844 32932 ft 506 kts 93°
2026-05-07 02:52 44.03885 -20.70057 32937 ft 506 kts 93°
2026-05-07 02:53 44.03856 -20.60276 32953 ft 507 kts 93°
2026-05-07 02:53 44.03817 -20.50483 32953 ft 507 kts 93°
2026-05-07 02:54 44.03771 -20.40686 32956 ft 507 kts 93°
2026-05-07 02:54 44.03715 -20.30873 32953 ft 508 kts 93°
2026-05-07 02:55 44.03652 -20.21052 32963 ft 508 kts 93°
2026-05-07 02:55 44.03581 -20.11222 32959 ft 509 kts 93°
2026-05-07 02:56 44.03500 -20.01378 32963 ft 509 kts 93°
2026-05-07 02:56 44.03411 -19.91546 32959 ft 510 kts 93°
2026-05-07 02:57 44.03314 -19.81673 32971 ft 511 kts 93°
2026-05-07 02:57 44.03207 -19.71787 32962 ft 512 kts 93°
2026-05-07 02:58 44.03092 -19.61889 32967 ft 513 kts 93°
2026-05-07 02:58 44.02968 -19.51981 32962 ft 513 kts 92°
2026-05-07 02:59 44.02838 -19.42141 32973 ft 513 kts 92°
2026-05-07 02:59 44.02696 -19.32171 32972 ft 513 kts 92°
2026-05-07 03:00 44.02548 -19.22338 32980 ft 512 kts 93°
2026-05-07 03:00 44.02391 -19.12451 32981 ft 512 kts 93°
2026-05-07 03:01 44.02225 -19.02563 32979 ft 512 kts 93°
2026-05-07 03:01 44.02050 -18.92681 32980 ft 512 kts 93°
2026-05-07 03:02 44.01867 -18.82805 32981 ft 511 kts 93°
2026-05-07 03:02 44.01675 -18.72925 32971 ft 512 kts 93°
2026-05-07 03:03 44.01475 -18.63040 32989 ft 512 kts 93°
2026-05-07 03:03 44.01267 -18.53164 32989 ft 512 kts 93°
2026-05-07 03:04 44.01051 -18.43327 32990 ft 513 kts 93°
2026-05-07 03:04 44.00825 -18.33421 32982 ft 513 kts 92°
2026-05-07 03:05 44.00590 -18.23505 32991 ft 514 kts 92°
2026-05-07 03:05 44.00347 -18.13581 32992 ft 515 kts 92°
2026-05-07 03:06 44.00095 -18.03634 32991 ft 515 kts 92°
2026-05-07 03:06 44.00064 -17.93687 32997 ft 515 kts 88°
2026-05-07 03:07 44.00292 -17.83730 33003 ft 516 kts 88°
2026-05-07 03:07 44.00529 -17.73757 32997 ft 517 kts 88°
2026-05-07 03:08 44.00735 -17.63773 32996 ft 517 kts 88°
2026-05-07 03:08 44.00916 -17.53796 32998 ft 517 kts 88°
2026-05-07 03:09 44.01087 -17.43812 33004 ft 517 kts 88°
2026-05-07 03:09 44.01251 -17.33816 33003 ft 518 kts 88°
2026-05-07 03:10 44.01407 -17.23806 33002 ft 518 kts 88°
2026-05-07 03:10 44.01554 -17.13801 33006 ft 519 kts 88°
2026-05-07 03:11 44.01692 -17.03834 33008 ft 519 kts 88°
2026-05-07 03:11 44.01823 -16.93797 33004 ft 520 kts 88°
2026-05-07 03:12 44.01944 -16.83760 33006 ft 520 kts 88°
2026-05-07 03:12 44.02057 -16.73700 33004 ft 521 kts 88°
2026-05-07 03:13 44.02161 -16.63635 33005 ft 521 kts 88°
2026-05-07 03:13 44.02257 -16.53569 33009 ft 521 kts 88°
2026-05-07 03:14 44.02343 -16.43503 33018 ft 522 kts 88°
2026-05-07 03:15 44.02457 -16.28357 33015 ft 523 kts 88°
2026-05-07 03:15 44.02521 -16.18249 33008 ft 523 kts 88°
2026-05-07 03:16 44.02577 -16.08143 33034 ft 524 kts 87°
2026-05-07 03:16 44.02616 -15.99725 33017 ft 525 kts 87°
2026-05-07 03:17 44.02656 -15.89562 33014 ft 526 kts 88°
2026-05-07 03:17 44.02687 -15.79394 33014 ft 527 kts 88°
2026-05-07 03:18 44.02708 -15.69222 33026 ft 527 kts 87°
2026-05-07 03:18 44.02721 -15.59032 33014 ft 527 kts 87°
2026-05-07 03:19 44.02724 -15.48841 33016 ft 527 kts 87°
2026-05-07 03:19 44.02719 -15.38652 33013 ft 527 kts 87°
2026-05-07 03:20 44.02704 -15.28470 33015 ft 527 kts 87°
2026-05-07 03:20 44.02680 -15.18282 33013 ft 527 kts 88°
2026-05-07 03:21 44.02648 -15.08172 33013 ft 527 kts 88°
2026-05-07 03:21 44.02606 -14.97990 33014 ft 527 kts 88°
2026-05-07 03:22 44.02556 -14.87812 33066 ft 529 kts 88°
2026-05-07 03:22 44.02528 -14.82702 33358 ft 530 kts 88°
2026-05-07 03:22 44.02496 -14.77581 33714 ft 530 kts 88°
2026-05-07 03:22 44.02463 -14.72458 34094 ft 530 kts 88°
2026-05-07 03:23 44.02427 -14.67348 34485 ft 527 kts 88°
2026-05-07 03:23 44.02388 -14.62267 34941 ft 524 kts 88°
2026-05-07 03:23 44.02347 -14.57218 35406 ft 521 kts 88°
2026-05-07 03:23 44.02305 -14.52229 35980 ft 513 kts 88°
2026-05-07 03:24 44.02261 -14.47296 36500 ft 508 kts 88°
2026-05-07 03:24 44.02216 -14.42391 36849 ft 507 kts 89°
2026-05-07 03:24 44.02170 -14.37490 36959 ft 509 kts 89°
2026-05-07 03:25 44.02071 -14.27614 37010 ft 511 kts 89°
2026-05-07 03:25 44.01961 -14.17783 37021 ft 506 kts 89°
2026-05-07 03:26 44.01844 -14.08032 36999 ft 503 kts 89°
2026-05-07 03:26 44.01720 -13.98332 36999 ft 500 kts 89°
2026-05-07 03:27 44.01589 -13.88679 37018 ft 500 kts 89°
2026-05-07 03:27 44.01449 -13.79021 37018 ft 500 kts 89°
2026-05-07 03:28 44.01302 -13.69361 37007 ft 502 kts 89°
2026-05-07 03:28 44.01146 -13.59719 37014 ft 503 kts 89°
2026-05-07 03:29 44.00980 -13.49994 37019 ft 505 kts 89°
2026-05-07 03:29 44.00806 -13.40227 37014 ft 506 kts 89°
2026-05-07 03:30 44.00623 -13.30451 37006 ft 506 kts 89°
2026-05-07 03:30 44.00431 -13.20679 37013 ft 506 kts 89°
2026-05-07 03:31 44.00233 -13.10909 37026 ft 506 kts 89°
2026-05-07 03:31 43.99855 -13.01160 37005 ft 506 kts 96°
2026-05-07 03:32 43.98346 -12.91629 37009 ft 506 kts 105°
2026-05-07 03:32 43.96303 -12.82282 37004 ft 506 kts 105°
2026-05-07 03:33 43.94265 -12.72963 37012 ft 504 kts 105°
2026-05-07 03:33 43.92255 -12.63644 37004 ft 504 kts 105°
2026-05-07 03:34 43.90256 -12.54337 36995 ft 503 kts 105°
2026-05-07 03:34 43.88256 -12.45055 37000 ft 503 kts 105°
2026-05-07 03:35 43.86245 -12.35768 37008 ft 503 kts 105°
2026-05-07 03:35 43.84224 -12.26486 36996 ft 503 kts 106°
2026-05-07 03:36 43.82194 -12.17206 36997 ft 503 kts 106°
2026-05-07 03:36 43.80171 -12.07993 36997 ft 503 kts 106°
2026-05-07 03:37 43.78126 -11.98723 36998 ft 504 kts 106°
2026-05-07 03:37 43.76075 -11.89469 36995 ft 504 kts 106°
2026-05-07 03:38 43.74014 -11.80205 36994 ft 503 kts 106°
2026-05-07 03:38 43.71948 -11.70961 36994 ft 503 kts 106°
2026-05-07 03:39 43.69874 -11.61722 36993 ft 503 kts 106°
2026-05-07 03:39 43.67794 -11.52492 36992 ft 503 kts 106°
2026-05-07 03:40 43.65706 -11.43269 36992 ft 503 kts 106°
2026-05-07 03:40 43.63612 -11.34058 36987 ft 503 kts 106°
2026-05-07 03:41 43.61507 -11.24838 36993 ft 503 kts 106°
2026-05-07 03:41 43.59398 -11.15635 36987 ft 503 kts 106°
2026-05-07 03:42 43.57278 -11.06428 36987 ft 503 kts 107°
2026-05-07 03:42 43.55155 -10.97245 36985 ft 503 kts 107°
2026-05-07 03:43 43.53023 -10.88060 36987 ft 503 kts 107°
2026-05-07 03:43 43.50885 -10.78889 36975 ft 503 kts 107°
2026-05-07 03:44 43.48739 -10.69720 36982 ft 503 kts 107°
2026-05-07 03:44 43.46587 -10.60564 36980 ft 503 kts 107°
2026-05-07 03:45 43.44428 -10.51417 36984 ft 503 kts 107°
2026-05-07 03:45 43.42263 -10.42279 36976 ft 503 kts 107°
2026-05-07 03:46 43.40089 -10.33145 36976 ft 502 kts 107°
2026-05-07 03:46 43.37907 -10.24009 36972 ft 502 kts 107°
2026-05-07 03:47 43.35721 -10.14895 36976 ft 502 kts 107°
2026-05-07 03:47 43.33528 -10.05790 36972 ft 502 kts 107°
2026-05-07 03:48 43.31325 -9.96679 36969 ft 502 kts 107°
2026-05-07 03:48 43.29130 -9.87640 36964 ft 502 kts 107°
2026-05-07 03:49 43.26916 -9.78555 36968 ft 502 kts 108°
2026-05-07 03:49 43.24698 -9.69491 36965 ft 501 kts 108°
2026-05-07 03:50 43.22473 -9.60433 36952 ft 501 kts 108°
2026-05-07 03:50 43.20246 -9.51403 36944 ft 500 kts 108°
2026-05-07 03:51 43.18012 -9.42380 36950 ft 500 kts 108°
2026-05-07 03:51 43.15774 -9.33379 36944 ft 499 kts 108°
2026-05-07 03:52 43.13530 -9.24382 36939 ft 499 kts 108°
2026-05-07 03:52 43.11277 -9.15392 36940 ft 499 kts 108°
2026-05-07 03:53 43.09021 -9.06420 36946 ft 499 kts 109°
2026-05-07 03:53 43.06758 -8.97451 36923 ft 499 kts 109°
2026-05-07 03:54 43.04488 -8.88493 36932 ft 498 kts 109°
2026-05-07 03:54 43.02211 -8.79542 36937 ft 498 kts 109°
2026-05-07 03:55 42.99932 -8.70616 36929 ft 498 kts 109°
2026-05-07 03:55 42.97650 -8.61707 36926 ft 497 kts 110°
2026-05-07 03:56 42.95361 -8.52805 36930 ft 496 kts 110°
2026-05-07 03:56 42.93201 -8.43856 36926 ft 496 kts 104°
2026-05-07 03:57 42.92104 -8.34593 36930 ft 496 kts 95°
2026-05-07 03:57 42.91579 -8.25210 36943 ft 496 kts 95°
2026-05-07 03:58 42.91040 -8.15821 36940 ft 496 kts 95°
2026-05-07 03:58 42.90462 -8.06499 36938 ft 497 kts 95°
2026-05-07 03:59 42.89857 -7.97110 36943 ft 498 kts 95°
2026-05-07 03:59 42.89244 -7.87695 36944 ft 498 kts 95°
2026-05-07 04:00 42.88625 -7.78293 36942 ft 498 kts 95°
2026-05-07 04:00 42.87999 -7.68888 36940 ft 498 kts 95°
2026-05-07 04:01 42.87365 -7.59479 36947 ft 498 kts 96°
2026-05-07 04:01 42.86724 -7.50085 36945 ft 498 kts 96°
2026-05-07 04:02 42.86076 -7.40697 36947 ft 497 kts 96°
2026-05-07 04:02 42.85420 -7.31306 36943 ft 497 kts 96°
2026-05-07 04:03 42.84757 -7.21945 36949 ft 497 kts 96°
2026-05-07 04:03 42.84084 -7.12578 36937 ft 496 kts 96°
2026-05-07 04:04 42.83520 -7.04812 36946 ft 496 kts 96°
2026-05-07 04:04 42.82835 -6.95459 36951 ft 496 kts 97°
2026-05-07 04:05 42.82143 -6.86110 36952 ft 496 kts 97°
2026-05-07 04:05 42.81444 -6.76778 36951 ft 496 kts 97°
2026-05-07 04:06 42.80736 -6.67422 36958 ft 496 kts 97°
2026-05-07 04:06 42.80022 -6.58077 36959 ft 497 kts 97°
2026-05-07 04:07 42.79295 -6.48710 36972 ft 497 kts 97°
2026-05-07 04:07 42.78551 -6.39347 36965 ft 498 kts 98°
2026-05-07 04:08 42.77799 -6.29981 36978 ft 498 kts 98°
2026-05-07 04:08 42.77043 -6.20602 36977 ft 498 kts 98°
2026-05-07 04:09 42.76283 -6.11240 36977 ft 498 kts 98°
2026-05-07 04:09 42.75529 -6.01881 36976 ft 497 kts 98°
2026-05-07 04:10 42.74769 -5.92522 36977 ft 497 kts 98°
2026-05-07 04:10 42.73998 -5.83173 36973 ft 498 kts 98°
2026-05-07 04:11 42.73198 -5.73876 36974 ft 498 kts 98°
2026-05-07 04:11 42.72380 -5.64524 36966 ft 498 kts 99°
2026-05-07 04:12 42.71561 -5.55172 36991 ft 498 kts 99°
2026-05-07 04:12 42.70736 -5.45819 36988 ft 499 kts 99°
2026-05-07 04:13 42.69913 -5.36444 36987 ft 499 kts 99°
2026-05-07 04:13 42.69100 -5.27077 36994 ft 499 kts 99°
2026-05-07 04:14 42.68278 -5.17704 37005 ft 499 kts 99°
2026-05-07 04:14 42.67445 -5.08327 37014 ft 500 kts 99°
2026-05-07 04:15 42.66605 -4.98953 36996 ft 500 kts 99°
2026-05-07 04:15 42.65733 -4.89577 36988 ft 500 kts 100°
2026-05-07 04:16 42.64849 -4.80194 37003 ft 501 kts 99°
2026-05-07 04:16 42.63969 -4.70811 37004 ft 501 kts 99°
2026-05-07 04:17 42.63084 -4.61423 36999 ft 502 kts 100°
2026-05-07 04:17 42.62189 -4.52017 36998 ft 502 kts 100°
2026-05-07 04:18 42.61285 -4.42617 37010 ft 502 kts 100°
2026-05-07 04:18 42.60373 -4.33212 37007 ft 503 kts 100°
2026-05-07 04:19 42.59452 -4.23803 36998 ft 503 kts 100°
2026-05-07 04:19 42.58526 -4.14409 37009 ft 503 kts 100°
2026-05-07 04:20 42.57591 -4.05004 36998 ft 503 kts 100°
2026-05-07 04:20 42.56647 -3.95608 37007 ft 502 kts 100°
2026-05-07 04:21 42.55218 -3.81530 37008 ft 502 kts 100°
2026-05-07 04:21 42.54263 -3.72210 36979 ft 502 kts 101°
2026-05-07 04:22 42.53294 -3.62830 36978 ft 503 kts 101°
2026-05-07 04:22 42.52314 -3.53429 36980 ft 504 kts 101°
2026-05-07 04:23 42.51326 -3.44015 36990 ft 505 kts 101°
2026-05-07 04:23 42.50329 -3.34590 36990 ft 506 kts 101°
2026-05-07 04:24 42.49323 -3.25147 37003 ft 506 kts 101°
2026-05-07 04:24 42.48308 -3.15704 37014 ft 506 kts 101°
2026-05-07 04:25 42.47288 -3.06278 37019 ft 506 kts 101°
2026-05-07 04:25 42.46260 -2.96844 37012 ft 506 kts 101°
2026-05-07 04:26 42.45171 -2.87429 37027 ft 505 kts 104°
2026-05-07 04:26 42.43381 -2.78269 37024 ft 503 kts 109°
2026-05-07 04:27 42.41448 -2.69165 37009 ft 503 kts 109°
2026-05-07 04:27 42.39539 -2.60050 37001 ft 504 kts 109°
2026-05-07 04:28 42.37663 -2.50990 36984 ft 504 kts 109°
2026-05-07 04:28 42.35773 -2.41876 36997 ft 503 kts 109°
2026-05-07 04:29 42.33872 -2.32764 36996 ft 503 kts 109°
2026-05-07 04:29 42.31966 -2.23673 36995 ft 503 kts 109°
2026-05-07 04:30 42.30055 -2.14594 37002 ft 503 kts 109°
2026-05-07 04:30 42.28135 -2.05509 37009 ft 503 kts 109°
2026-05-07 04:31 42.26206 -1.96434 37014 ft 503 kts 109°
2026-05-07 04:31 42.24265 -1.87362 37001 ft 503 kts 109°
2026-05-07 04:32 42.22319 -1.78298 37010 ft 503 kts 109°
2026-05-07 04:32 42.20363 -1.69223 37008 ft 504 kts 109°
2026-05-07 04:33 42.18400 -1.60151 36997 ft 504 kts 110°
2026-05-07 04:33 42.16430 -1.51086 36989 ft 504 kts 110°
2026-05-07 04:34 42.14449 -1.42012 37008 ft 504 kts 110°
2026-05-07 04:34 42.12464 -1.32952 37005 ft 505 kts 110°
2026-05-07 04:35 42.10470 -1.23883 37005 ft 505 kts 110°
2026-05-07 04:35 42.08460 -1.14819 37004 ft 505 kts 110°
2026-05-07 04:36 42.06437 -1.05777 37002 ft 505 kts 110°
2026-05-07 04:36 42.04402 -0.96705 37002 ft 506 kts 110°
2026-05-07 04:37 42.02364 -0.87644 37005 ft 507 kts 110°
2026-05-07 04:37 42.00317 -0.78567 37001 ft 508 kts 110°
2026-05-07 04:38 41.98269 -0.69476 36980 ft 508 kts 111°
2026-05-07 04:38 41.96214 -0.60381 36995 ft 509 kts 111°
2026-05-07 04:39 41.94151 -0.51294 36993 ft 509 kts 111°
2026-05-07 04:39 41.92077 -0.42194 36998 ft 509 kts 111°
2026-05-07 04:40 41.90012 -0.33172 36998 ft 509 kts 111°
2026-05-07 04:40 41.87924 -0.24105 36997 ft 509 kts 111°
2026-05-07 04:41 41.85829 -0.15037 37000 ft 509 kts 111°
2026-05-07 04:41 41.83729 -0.05978 37001 ft 508 kts 111°
2026-05-07 04:42 41.81623 0.03069 36990 ft 508 kts 111°
2026-05-07 04:42 41.79513 0.12101 37005 ft 509 kts 111°
2026-05-07 04:43 41.77376 0.21140 36978 ft 509 kts 112°
2026-05-07 04:43 41.75195 0.30160 36994 ft 509 kts 112°
2026-05-07 04:44 41.73037 0.39179 36977 ft 509 kts 111°
2026-05-07 04:44 41.70900 0.48213 36991 ft 510 kts 111°
2026-05-07 04:45 41.68748 0.57256 36997 ft 510 kts 112°
2026-05-07 04:45 41.66585 0.66295 36998 ft 511 kts 112°
2026-05-07 04:46 41.64329 0.75299 36997 ft 510 kts 114°
2026-05-07 04:46 41.61966 0.84235 36995 ft 511 kts 114°
2026-05-07 04:47 41.59604 0.93190 37006 ft 511 kts 113°
2026-05-07 04:47 41.57251 1.02162 37002 ft 512 kts 113°
2026-05-07 04:48 41.54896 1.11122 36994 ft 512 kts 114°
2026-05-07 04:48 41.52646 1.20142 36999 ft 514 kts 111°
2026-05-07 04:49 41.50583 1.29286 37005 ft 515 kts 110°
2026-05-07 04:49 41.48502 1.38419 37009 ft 515 kts 111°
2026-05-07 04:50 41.46376 1.47531 37006 ft 515 kts 111°
2026-05-07 04:50 41.44230 1.56656 37001 ft 516 kts 111°
2026-05-07 04:51 41.42446 1.64235 37007 ft 516 kts 111°
2026-05-07 04:51 41.40251 1.73321 37002 ft 515 kts 112°
2026-05-07 04:52 41.37567 1.83836 37004 ft 516 kts 113°
2026-05-07 04:52 41.35637 1.91400 36988 ft 516 kts 112°
2026-05-07 04:53 41.33335 2.00463 36987 ft 517 kts 112°
2026-05-07 04:53 41.31035 2.09516 36996 ft 517 kts 112°
2026-05-07 04:54 41.29280 2.18830 36994 ft 521 kts 105°
2026-05-07 04:54 41.27781 2.28263 36995 ft 521 kts 105°
2026-05-07 04:55 41.26262 2.37678 36989 ft 521 kts 106°
2026-05-07 04:55 41.24714 2.47022 36993 ft 522 kts 106°
2026-05-07 04:56 41.23135 2.56433 36987 ft 522 kts 106°
2026-05-07 04:56 41.21548 2.65840 36985 ft 523 kts 106°
2026-05-07 04:57 41.19953 2.75262 36978 ft 524 kts 106°
2026-05-07 04:57 41.18346 2.84705 36987 ft 524 kts 106°
2026-05-07 04:58 41.16730 2.94159 36985 ft 525 kts 106°
2026-05-07 04:58 41.15105 3.03612 36984 ft 526 kts 107°
2026-05-07 04:59 41.13468 3.13083 36984 ft 527 kts 107°
2026-05-07 04:59 41.11821 3.22560 36988 ft 527 kts 107°
2026-05-07 05:00 41.10168 3.32029 36988 ft 528 kts 107°
2026-05-07 05:00 41.08505 3.41506 36990 ft 528 kts 107°
2026-05-07 05:01 41.06847 3.50914 36980 ft 527 kts 107°
2026-05-07 05:01 41.05167 3.60352 36987 ft 527 kts 107°
2026-05-07 05:02 41.03470 3.69781 36985 ft 526 kts 107°
2026-05-07 05:02 41.01769 3.79209 36985 ft 526 kts 107°
2026-05-07 05:03 41.00063 3.88633 36989 ft 526 kts 107°
2026-05-07 05:03 40.98354 3.98044 36997 ft 527 kts 107°
2026-05-07 05:04 40.96633 4.07478 36995 ft 527 kts 108°
2026-05-07 05:04 40.94905 4.16905 36995 ft 528 kts 108°
2026-05-07 05:05 40.93165 4.26349 36990 ft 529 kts 108°
2026-05-07 05:05 40.91415 4.35803 36998 ft 530 kts 108°
2026-05-07 05:06 40.89655 4.45271 36996 ft 531 kts 108°
2026-05-07 05:06 40.87902 4.54755 36995 ft 532 kts 108°
2026-05-07 05:07 40.86154 4.64257 36992 ft 532 kts 107°
2026-05-07 05:07 40.84927 4.73878 36997 ft 537 kts 100°
2026-05-07 05:08 40.84075 4.83679 36996 ft 537 kts 99°
2026-05-07 05:08 40.83214 4.93473 36996 ft 538 kts 100°
2026-05-07 05:09 40.82304 5.03276 36993 ft 538 kts 100°
2026-05-07 05:09 40.81370 5.13065 36998 ft 538 kts 101°
2026-05-07 05:10 40.80426 5.22860 36997 ft 538 kts 101°
2026-05-07 05:10 40.79478 5.32650 36997 ft 538 kts 101°
2026-05-07 05:11 40.78522 5.42443 36987 ft 538 kts 101°
2026-05-07 05:11 40.77557 5.52239 36973 ft 539 kts 101°
2026-05-07 05:12 40.76585 5.62027 36993 ft 539 kts 101°
2026-05-07 05:12 40.75599 5.71858 36986 ft 541 kts 101°
2026-05-07 05:13 40.74604 5.81691 36995 ft 542 kts 101°
2026-05-07 05:13 40.73600 5.91540 36997 ft 542 kts 101°
2026-05-07 05:14 40.72585 6.01408 36997 ft 543 kts 101°
2026-05-07 05:14 40.71565 6.11245 36978 ft 543 kts 101°
2026-05-07 05:15 40.70533 6.21099 36994 ft 543 kts 101°
2026-05-07 05:15 40.69487 6.30965 36999 ft 543 kts 102°
2026-05-07 05:16 40.68441 6.40749 36997 ft 543 kts 102°
2026-05-07 05:16 40.67376 6.50647 36991 ft 543 kts 102°
2026-05-07 05:17 40.66316 6.60428 36997 ft 542 kts 102°
2026-05-07 05:17 40.65241 6.70259 36998 ft 542 kts 102°
2026-05-07 05:18 40.64157 6.80085 36994 ft 542 kts 102°
2026-05-07 05:18 40.63066 6.89907 36986 ft 542 kts 102°
2026-05-07 05:19 40.61967 6.99717 36999 ft 542 kts 102°
2026-05-07 05:19 40.60860 7.09523 36995 ft 542 kts 102°
2026-05-07 05:20 40.59745 7.19331 36994 ft 542 kts 102°
2026-05-07 05:20 40.58621 7.29134 36994 ft 542 kts 102°
2026-05-07 05:21 40.56960 7.43860 36993 ft 544 kts 99°
2026-05-07 05:22 40.56779 7.53852 36988 ft 548 kts 87°
2026-05-07 05:22 40.57650 7.63805 36989 ft 549 kts 84°
2026-05-07 05:23 40.58587 7.73771 36998 ft 549 kts 84°
2026-05-07 05:23 40.59448 7.83740 36992 ft 549 kts 85°
2026-05-07 05:24 40.60279 7.93736 36991 ft 549 kts 85°
2026-05-07 05:24 40.61108 8.03711 36988 ft 549 kts 85°
2026-05-07 05:25 40.61893 8.13709 36979 ft 546 kts 90°
2026-05-07 05:25 40.61586 8.18573 36981 ft 538 kts 108°
2026-05-07 05:25 40.60280 8.23170 37004 ft 524 kts 125°
2026-05-07 05:25 40.58321 8.27090 36996 ft 517 kts 136°
2026-05-07 05:26 40.55868 8.30469 36996 ft 506 kts 149°
2026-05-07 05:26 40.50020 8.35347 36974 ft 500 kts 157°
2026-05-07 05:27 40.44100 8.40285 37026 ft 507 kts 155°
2026-05-07 05:27 40.38215 8.45337 36974 ft 501 kts 155°
2026-05-07 05:28 40.32408 8.50289 37003 ft 497 kts 155°
2026-05-07 05:28 40.26589 8.55222 37009 ft 499 kts 155°
2026-05-07 05:29 40.20740 8.60147 37008 ft 500 kts 156°
2026-05-07 05:29 40.14881 8.65066 36957 ft 501 kts 156°
2026-05-07 05:30 40.09014 8.69988 36994 ft 501 kts 156°
2026-05-07 05:30 40.03141 8.74907 36974 ft 502 kts 156°
2026-05-07 05:31 39.97256 8.79826 36994 ft 503 kts 156°
2026-05-07 05:31 39.91355 8.84759 36970 ft 504 kts 156°
2026-05-07 05:32 39.85448 8.89693 36973 ft 504 kts 156°
2026-05-07 05:32 39.79535 8.94619 36985 ft 505 kts 156°
2026-05-07 05:33 39.73632 8.99553 36992 ft 505 kts 156°
2026-05-07 05:33 39.67727 9.04492 36952 ft 505 kts 156°
2026-05-07 05:34 39.61812 9.09409 36955 ft 505 kts 158°
2026-05-07 05:34 39.55862 9.14294 36981 ft 507 kts 158°
2026-05-07 05:35 39.49876 9.19196 36995 ft 510 kts 158°
2026-05-07 05:35 39.43872 9.24113 36994 ft 512 kts 158°
2026-05-07 05:36 39.37846 9.29047 36964 ft 513 kts 159°
2026-05-07 05:36 39.31814 9.33968 36984 ft 514 kts 159°
2026-05-07 05:37 39.25769 9.38891 36971 ft 515 kts 159°
2026-05-07 05:37 39.19709 9.43820 36989 ft 514 kts 159°
2026-05-07 05:38 39.13801 9.48993 36949 ft 531 kts 148°
2026-05-07 05:38 39.11241 9.52607 36981 ft 550 kts 135°
2026-05-07 05:38 39.09230 9.56867 36967 ft 566 kts 121°
2026-05-07 05:39 39.07048 9.64895 36978 ft 574 kts 112°
2026-05-07 05:39 39.04157 9.76212 36972 ft 572 kts 115°
2026-05-07 05:40 39.01464 9.85823 36951 ft 570 kts 115°
2026-05-07 05:40 38.98776 9.95413 36966 ft 570 kts 115°
2026-05-07 05:41 38.96534 10.03432 36969 ft 569 kts 115°
2026-05-07 05:41 38.93856 10.12995 36968 ft 569 kts 115°
2026-05-07 05:42 38.91168 10.22554 36940 ft 569 kts 115°
2026-05-07 05:42 38.88488 10.32044 36946 ft 570 kts 115°
2026-05-07 05:43 38.85770 10.41632 36965 ft 574 kts 115°
2026-05-07 05:43 38.83025 10.51281 36964 ft 578 kts 115°
2026-05-07 05:44 38.80253 10.60993 36947 ft 580 kts 115°
2026-05-07 05:44 38.78859 10.65863 36639 ft 586 kts 115°
2026-05-07 05:44 38.77448 10.70778 35888 ft 591 kts 115°
2026-05-07 05:44 38.76028 10.75726 35114 ft 591 kts 115°
2026-05-07 05:45 38.74604 10.80677 34282 ft 592 kts 115°
2026-05-07 05:45 38.73177 10.85632 33337 ft 594 kts 115°
2026-05-07 05:45 38.71749 10.90582 32384 ft 593 kts 114°
2026-05-07 05:45 38.70326 10.95506 31603 ft 583 kts 114°
2026-05-07 05:46 38.68946 11.00279 30788 ft 564 kts 114°
2026-05-07 05:46 38.67591 11.04950 29538 ft 553 kts 114°
2026-05-07 05:46 38.66272 11.09480 28819 ft 538 kts 114°
2026-05-07 05:46 38.64970 11.13932 28101 ft 532 kts 114°
2026-05-07 05:47 38.63673 11.18352 27445 ft 526 kts 114°
2026-05-07 05:47 38.62397 11.22698 26810 ft 519 kts 114°
2026-05-07 05:47 38.61133 11.26997 26189 ft 513 kts 114°
2026-05-07 05:47 38.59888 11.31230 25571 ft 507 kts 114°
2026-05-07 05:48 38.58651 11.35434 24962 ft 502 kts 113°
2026-05-07 05:48 38.57427 11.39585 24371 ft 496 kts 113°
2026-05-07 05:48 38.56217 11.43684 23786 ft 491 kts 113°
2026-05-07 05:48 38.55014 11.47755 23126 ft 487 kts 113°
2026-05-07 05:49 38.53820 11.51785 22497 ft 482 kts 113°
2026-05-07 05:49 38.52657 11.55709 21915 ft 476 kts 113°
2026-05-07 05:49 38.51477 11.59684 21337 ft 470 kts 113°
2026-05-07 05:49 38.50324 11.63559 20786 ft 464 kts 113°
2026-05-07 05:50 38.49198 11.67342 20256 ft 459 kts 113°
2026-05-07 05:50 38.48071 11.71120 19721 ft 454 kts 113°
2026-05-07 05:50 38.46952 11.74867 19190 ft 450 kts 113°
2026-05-07 05:50 38.45841 11.78580 18680 ft 445 kts 113°
2026-05-07 05:51 38.44742 11.82253 18128 ft 442 kts 113°
2026-05-07 05:51 38.43649 11.85897 17546 ft 438 kts 113°
2026-05-07 05:51 38.42570 11.89495 17008 ft 433 kts 113°
2026-05-07 05:51 38.41499 11.93060 16487 ft 428 kts 113°
2026-05-07 05:52 38.40442 11.96573 15968 ft 423 kts 114°
2026-05-07 05:52 38.39393 12.00053 15482 ft 417 kts 115°
2026-05-07 05:52 38.38355 12.03490 14995 ft 413 kts 114°
2026-05-07 05:52 38.37330 12.06886 14500 ft 409 kts 114°
2026-05-07 05:53 38.36310 12.10256 14028 ft 406 kts 115°
2026-05-07 05:53 38.35464 12.13655 13526 ft 401 kts 102°
2026-05-07 05:53 38.35291 12.17182 13049 ft 398 kts 94°
2026-05-07 05:53 38.35278 12.20690 12555 ft 395 kts 94°
2026-05-07 05:54 38.35244 12.24173 12077 ft 391 kts 93°
2026-05-07 05:54 38.35187 12.27610 11709 ft 383 kts 95°
2026-05-07 05:54 38.35120 12.30922 11383 ft 364 kts 95°
2026-05-07 05:54 38.35046 12.34038 11180 ft 340 kts 94°
2026-05-07 05:55 38.34969 12.36950 11038 ft 319 kts 96°
2026-05-07 05:55 38.34890 12.39722 10925 ft 309 kts 95°
2026-05-07 05:55 38.34813 12.42432 10785 ft 302 kts 96°
2026-05-07 05:55 38.34737 12.45079 10664 ft 296 kts 96°
2026-05-07 05:56 38.34664 12.47669 10529 ft 289 kts 96°
2026-05-07 05:56 38.34592 12.50203 10426 ft 283 kts 96°
2026-05-07 05:56 38.34521 12.52683 10303 ft 277 kts 96°
2026-05-07 05:56 38.34451 12.55108 10181 ft 272 kts 96°
2026-05-07 05:57 38.34380 12.57511 9942 ft 271 kts 96°
2026-05-07 05:57 38.34309 12.59901 9693 ft 270 kts 96°
2026-05-07 05:57 38.34237 12.62295 9417 ft 270 kts 96°
2026-05-07 05:57 38.34165 12.64681 9149 ft 270 kts 96°
2026-05-07 05:58 38.34094 12.67061 8930 ft 268 kts 96°
2026-05-07 05:58 38.34023 12.69428 8683 ft 267 kts 96°
2026-05-07 05:58 38.33951 12.71789 8414 ft 267 kts 96°
2026-05-07 05:58 38.33879 12.74133 8180 ft 266 kts 96°
2026-05-07 05:59 38.33874 12.76452 7971 ft 260 kts 86°
2026-05-07 05:59 38.34486 12.78619 7864 ft 260 kts 69°
2026-05-07 05:59 38.35236 12.80725 7717 ft 262 kts 71°
2026-05-07 05:59 38.35955 12.82854 7592 ft 260 kts 72°
2026-05-07 06:00 38.36663 12.84955 7461 ft 257 kts 71°
2026-05-07 06:00 38.37362 12.87034 7305 ft 253 kts 72°
2026-05-07 06:00 38.38055 12.89082 7189 ft 251 kts 72°
2026-05-07 06:00 38.38744 12.91118 7066 ft 249 kts 72°
2026-05-07 06:01 38.39347 12.93124 6916 ft 234 kts 85°
2026-05-07 06:01 38.39221 12.95070 6803 ft 217 kts 116°
2026-05-07 06:01 38.38425 12.96702 6720 ft 218 kts 132°
2026-05-07 06:01 38.37270 12.97915 6594 ft 216 kts 153°
2026-05-07 06:02 38.35912 12.98690 6494 ft 213 kts 154°
2026-05-07 06:02 38.34562 12.99473 6363 ft 213 kts 154°
2026-05-07 06:02 38.33198 13.00105 6244 ft 212 kts 172°
2026-05-07 06:02 38.31730 12.99800 6148 ft 217 kts 201°
2026-05-07 06:03 38.30496 12.98660 6044 ft 231 kts 225°
2026-05-07 06:03 38.29700 12.96809 5906 ft 239 kts 244°
2026-05-07 06:03 38.29080 12.94864 5799 ft 241 kts 243°
2026-05-07 06:03 38.28412 12.92860 5651 ft 243 kts 243°
2026-05-07 06:04 38.27754 12.90883 5530 ft 240 kts 243°
2026-05-07 06:04 38.27104 12.88942 5397 ft 237 kts 243°
2026-05-07 06:04 38.26464 12.87047 5276 ft 236 kts 243°
2026-05-07 06:04 38.25802 12.85105 5157 ft 235 kts 238°
2026-05-07 06:05 38.24779 12.83583 5011 ft 225 kts 204°
2026-05-07 06:05 38.23310 12.83068 4845 ft 224 kts 175°
2026-05-07 06:05 38.21797 12.83419 4619 ft 221 kts 156°
2026-05-07 06:05 38.20392 12.84158 4449 ft 219 kts 153°
2026-05-07 06:06 38.18990 12.84943 4190 ft 220 kts 152°
2026-05-07 06:06 38.17595 12.85718 3971 ft 217 kts 153°
2026-05-07 06:06 38.16226 12.86469 3737 ft 213 kts 153°
2026-05-07 06:06 38.14874 12.87205 3503 ft 209 kts 153°
2026-05-07 06:07 38.13568 12.87911 3328 ft 199 kts 152°
2026-05-07 06:07 38.12422 12.88749 3079 ft 182 kts 129°
2026-05-07 06:07 38.11838 12.90135 2937 ft 180 kts 103°
2026-05-07 06:07 38.11753 12.91704 2736 ft 178 kts 79°
2026-05-07 06:08 38.12197 12.93133 2574 ft 169 kts 67°
2026-05-07 06:08 38.12651 12.94466 2421 ft 158 kts 67°
2026-05-07 06:08 38.13084 12.95753 2374 ft 158 kts 68°
2026-05-07 06:08 38.13507 12.97010 2359 ft 153 kts 68°
2026-05-07 06:09 38.13926 12.98251 2327 ft 148 kts 67°
2026-05-07 06:09 38.14332 12.99413 2130 ft 145 kts 66°
2026-05-07 06:09 38.14761 13.00621 1820 ft 154 kts 67°
2026-05-07 06:09 38.15180 13.01896 1487 ft 158 kts 68°
2026-05-07 06:10 38.15594 13.03199 1217 ft 160 kts 66°
2026-05-07 06:10 38.16041 13.04486 885 ft 158 kts 65°
2026-05-07 06:10 38.16474 13.05733 691 ft 152 kts 68°
2026-05-07 06:10 38.16863 13.06963 446 ft 147 kts 66°
2026-05-07 06:11 38.17261 13.08120 258 ft 143 kts 68°
2026-05-07 06:11 38.17630 13.09236 103 ft 129 kts 67°
2026-05-07 06:11 38.17946 13.10183 64 ft 102 kts 67°
2026-05-07 06:11 38.18150 13.10790 67 ft 58 kts 67°
2026-05-07 06:12 38.18299 13.11233 66 ft 46 kts 67°
2026-05-07 06:12 38.18408 13.11552 64 ft 33 kts 66°
2026-05-07 06:12 38.18483 13.11777 68 ft 23 kts 67°
2026-05-07 06:12 38.18541 13.11876 68 ft 9 kts 12°
2026-05-07 06:13 38.18586 13.11835 65 ft 10 kts 294°
2026-05-07 06:13 38.18604 13.11724 69 ft 14 kts 278°
2026-05-07 06:13 38.18612 13.11591 69 ft 16 kts 267°
2026-05-07 06:13 38.18582 13.11458 65 ft 16 kts 248°
2026-05-07 06:14 38.18538 13.11332 66 ft 16 kts 246°
2026-05-07 06:14 38.18494 13.11205 65 ft 16 kts 246°
2026-05-07 06:14 38.18452 13.11079 66 ft 15 kts 247°
2026-05-07 06:14 38.18428 13.10993 68 ft 9 kts 268°
2026-05-07 06:15 38.18456 13.10924 65 ft 9 kts 298°
2026-05-07 06:15 38.18475 13.10858 65 ft 8 kts 288°
2026-05-07 06:15 38.18492 13.10793 63 ft 8 kts 288°
2026-05-07 06:15 38.18498 13.10725 70 ft 8 kts 261°
2026-05-07 06:16 38.18493 13.10664 62 ft 6 kts 285°
2026-05-07 06:16 38.18514 13.10634 60 ft 3 kts 323°
2026-05-07 06:16 38.18532 13.10620 62 ft 3 kts 331°
2026-05-07 06:16 38.18553 13.10608 61 ft 2 kts 336°